CW0728 Weather Reports


Display with metric or nautical units.
time (UTC)temp
F
wind
direction
speed
MPH
gust
MPH
rain 1hr
in
rain 24hr
in
rain mn
in
humidity
%
barometer
mb
20200702184623 80 222 1.0 6.0 0.00 0.00 0.00 70 1003.7
20200702183623 80 223 1.0 5.0 0.00 0.00 0.00 70 1003.8
20200702182123 79 224 1.0 3.0 0.00 0.00 0.00 70 1003.9
20200702181623 79 148 1.0 7.0 0.00 0.00 0.00 72 1003.9
20200702181124 79 210 1.0 7.0 0.00 0.00 0.00 70 1004.1
20200702180623 80 127 2.0 6.0 0.00 0.00 0.00 69 1004.1
20200702175623 79 162 1.0 6.0 0.00 0.00 0.00 73 1004.3
20200702174623 78 72 3.0 7.0 0.00 0.00 0.00 75 1004.3
20200702173123 76 27 1.0 7.0 0.00 0.00 0.00 75 1004.5
20200702171624 76 179 3.0 9.0 0.00 0.00 0.00 73 1004.6
20200702170623 78 103 2.0 5.0 0.00 0.00 0.00 72 1004.8
20200702170123 78 127 2.0 5.0 0.00 0.00 0.00 72 1004.8
20200702164123 77 167 1.0 5.0 0.00 0.00 0.00 75 1004.8
20200702163623 77 189 2.0 5.0 0.00 0.00 0.00 75 1004.8
20200702163123 77 95 1.0 5.0 0.00 0.00 0.00 75 1004.8
20200702162123 77 99 1.0 3.0 0.00 0.00 0.00 75 1004.9
20200702161623 76 256 2.0 6.0 0.00 0.00 0.00 76 1004.9
20200702161124 76 196 5.0 6.0 0.00 0.00 0.00 74 1005.0
20200702155623 77 241 3.0 5.0 0.00 0.00 0.00 72 1005.0
20200702155124 77 232 4.0 5.0 0.00 0.00 0.00 74 1005.0
20200702154125 77 275 1.0 5.0 0.00 0.00 0.00 75 1005.0
20200702152123 76 199 2.0 6.0 0.00 0.00 0.00 75 1005.0
20200702151123 75 130 1.0 4.0 0.00 0.00 0.00 79 1005.2
20200702145623 75 213 2.0 4.0 0.00 0.00 0.00 80 1005.3
20200702145124 75 154 1.0 4.0 0.00 0.00 0.00 81 1005.3
20200702143623 72 215 3.0 5.0 0.00 0.00 0.00 84 1005.6
20200702142626 73 219 3.0 4.0 0.00 0.00 0.00 81 1005.7
20200702142123 73 110 3.0 4.0 0.00 0.00 0.00 82 1005.7
20200702141123 72 158 1.0 4.0 0.00 0.00 0.00 84 1005.8
20200702140623 72 193 2.0 4.0 0.00 0.00 0.00 84 1005.8
20200702134124 72 158 3.0 4.0 0.00 0.00 0.00 86 1006.0
20200702133623 71 137 0.0 4.0 0.00 0.00 0.00 88 1006.0
20200702133123 71 232 0.0 4.0 0.00 0.00 0.00 89 1006.0
20200702132123 70 256 2.0 3.0 0.00 0.00 0.00 92 1005.9
20200702130623 68 205 1.0 3.0 0.00 0.00 0.00 94 1006.0
20200702125123 67 215 3.0 3.0 0.00 0.00 0.00 95 1006.0
20200702123623 66 229 2.0 2.0 0.00 0.00 0.00 95 1006.2
20200702123123 66 196 0.0 3.0 0.00 0.00 0.00 96 1006.2
20200702122623 66 191 1.0 3.0 0.00 0.00 0.00 96 1006.4
20200702115123 65 254 1.0 2.0 0.00 0.00 0.00 98 1006.5
20200702114123 64 40 0.0 2.0 0.00 0.00 0.00 99 1006.5
20200702113623 64 99 0.0 2.0 0.00 0.00 0.00 99 1006.5
20200702112623 63 155 1.0 3.0 0.00 0.00 0.00 99 1006.5
20200702112123 63 151 1.0 3.0 0.00 0.00 0.00 98 1006.5
20200702111122 63 192 1.0 3.0 0.00 0.00 0.00 98 1006.6
20200702110623 63 219 1.0 2.0 0.00 0.00 0.00 98 1006.6
20200702105622 62 257 0.0 2.0 0.00 0.00 0.00 98 1006.7
20200702105122 62 257 1.0 2.0 0.00 0.00 0.00 98 1006.7
20200702104123 62 272 1.0 2.0 0.00 0.00 0.00 98 1006.8
20200702103623 62 264 1.0 1.0 0.00 0.00 0.00 98 1006.8
20200702103123 62 264 0.0 2.0 0.00 0.00 0.00 98 1006.8
20200702102623 62 264 0.0 2.0 0.00 0.00 0.00 97 1006.7
20200702102123 62 264 2.0 2.0 0.00 0.00 0.00 97 1006.7
20200702101124 63 318 0.0 2.0 0.00 0.00 0.00 97 1006.7
20200702095622 63 223 1.0 2.0 0.00 0.00 0.00 97 1006.6
20200702094625 62 157 1.0 1.0 0.00 0.00 0.00 96 1006.6
20200702094122 62 157 0.0 1.0 0.00 0.00 0.00 96 1006.6
20200702093623 62 157 1.0 1.0 0.00 0.00 0.00 96 1006.6
20200702093124 62 157 0.0 1.0 0.00 0.00 0.00 96 1006.6
20200702092123 62 157 0.0 1.0 0.00 0.00 0.00 96 1006.6
20200702090623 62 157 1.0 1.0 0.00 0.00 0.00 96 1006.5
20200702085623 63 157 0.0 1.0 0.00 0.00 0.00 96 1006.4
20200702085123 63 157 0.0 1.0 0.00 0.00 0.00 96 1006.4
20200702084622 63 157 0.0 1.0 0.00 0.00 0.00 96 1006.4
20200702083623 62 157 0.0 1.0 0.00 0.00 0.00 96 1006.1
20200702083123 63 157 1.0 1.0 0.00 0.00 0.00 96 1006.1
20200702082623 63 157 0.0 1.0 0.00 0.00 0.00 96 1006.3
20200702082125 63 157 0.0 1.0 0.00 0.00 0.00 96 1006.3
20200702081124 63 157 0.0 1.0 0.00 0.00 0.00 96 1006.4
20200702080623 63 157 1.0 1.0 0.00 0.00 0.00 96 1006.4
20200702080123 63 157 0.0 1.0 0.00 0.00 0.00 96 1006.4
20200702075623 63 157 0.0 1.0 0.00 0.00 0.00 96 1006.4
20200702075122 63 157 0.0 0.0 0.00 0.00 0.00 96 1006.4
20200702074625 63 157 0.0 1.0 0.00 0.00 0.00 96 1006.4
20200702074122 63 157 0.0 1.0 0.00 0.00 0.00 96 1006.5
20200702073623 63 157 0.0 1.0 0.00 0.00 0.00 96 1006.5
20200702072623 63 157 0.0 1.0 0.00 0.00 0.00 96 1006.5
20200702071624 63 157 1.0 2.0 0.00 0.00 0.00 96 1006.5
20200702070623 63 148 1.0 1.0 0.00 0.00 0.00 96 1006.5
20200702065625 63 168 0.0 1.0 0.00 0.00 0.00 96 1006.5
20200702064623 64 168 0.0 2.0 0.00 0.00 0.00 96 1006.5
20200702064122 64 167 1.0 1.0 0.00 0.00 0.00 96 1006.4
20200702063125 64 167 0.0 1.0 0.00 0.00 0.00 96 1006.4
20200702062625 64 167 0.0 1.0 0.00 0.00 0.00 95 1006.4
20200702060123 65 167 1.0 1.0 0.00 0.00 0.00 94 1006.6
20200702053622 64 167 0.0 0.0 0.00 0.00 0.00 93 1007.1
20200702051623 64 167 0.0 1.0 0.00 0.00 0.00 92 1007.3
20200702050623 64 167 0.0 0.0 0.00 0.00 0.00 92 1007.6
20200702045122 64 167 0.0 0.0 0.00 0.00 0.00 91 1007.6
20200702044624 64 167 0.0 0.0 0.00 0.00 0.00 92 1007.6
20200702044122 64 167 0.0 0.0 0.00 0.00 0.00 91 1007.7
20200702043622 64 167 0.0 0.0 0.00 0.00 0.00 91 1007.7
20200702042122 64 167 0.0 0.0 0.00 0.01 0.00 91 1007.8
20200702041622 64 167 0.0 1.0 0.00 0.01 0.00 91 1007.8
20200702041123 64 167 0.0 1.0 0.00 0.01 0.00 91 1008.0
20200702040122 64 167 0.0 0.0 0.00 0.01 0.01 91 1008.0
20200702035122 64 167 0.0 0.0 0.00 0.01 0.01 91 1008.0
20200702034123 64 167 0.0 0.0 0.00 0.01 0.01 91 1008.1
20200702033623 64 167 0.0 0.0 0.00 0.01 0.01 91 1008.1
20200702033132 64 167 0.0 1.0 0.00 0.01 0.01 91 1008.1
20200702032622 64 167 0.0 1.0 0.00 0.01 0.01 91 1008.1
20200702032122 65 167 0.0 0.0 0.00 0.01 0.01 91 1008.1
20200702031623 65 167 0.0 0.0 0.00 0.01 0.01 91 1008.1
20200702031122 65 167 0.0 0.0 0.00 0.01 0.01 91 1008.2
20200702023622 65 167 0.0 0.0 0.00 0.01 0.01 91 1008.4
20200702022623 65 167 0.0 1.0 0.00 0.01 0.01 91 1008.5
20200702022122 66 167 0.0 1.0 0.00 0.01 0.01 91 1008.5
20200702021622 66 167 0.0 1.0 0.00 0.01 0.01 91 1008.5
20200702015122 66 167 0.0 0.0 0.00 0.01 0.01 90 1008.7
20200702014625 66 167 0.0 1.0 0.00 0.01 0.01 90 1008.7
20200702013122 66 167 0.0 1.0 0.00 0.01 0.01 90 1008.6
20200702012623 66 167 0.0 1.0 0.00 0.01 0.01 90 1008.5
20200702011622 67 167 0.0 1.0 0.00 0.01 0.01 90 1008.5
20200702010624 67 167 0.0 1.0 0.00 0.01 0.01 90 1008.3
20200702010122 67 167 0.0 1.0 0.00 0.02 0.01 90 1008.3
20200702005622 67 165 0.0 0.0 0.00 0.02 0.01 89 1008.4
20200702004622 67 165 0.0 1.0 0.00 0.03 0.01 89 1008.4
20200702003622 67 165 0.0 1.0 0.00 0.03 0.01 89 1008.4
20200702003122 67 165 0.0 2.0 0.00 0.05 0.01 89 1008.4
20200702002624 68 165 0.0 2.0 0.00 0.05 0.01 88 1008.3
20200702002122 68 165 1.0 2.0 0.00 0.05 0.01 88 1008.3
20200702001622 68 165 1.0 1.0 0.00 0.05 0.01 87 1008.3
20200702000622 68 165 1.0 1.0 0.00 0.05 0.01 86 1008.2
20200702000122 69 165 0.0 2.0 0.00 0.06 0.01 86 1008.2
20200701235122 69 174 1.0 2.0 0.00 0.06 0.01 85 1008.2
20200701234623 69 140 1.0 4.0 0.00 0.10 0.01 85 1008.2
20200701233123 69 229 3.0 4.0 0.00 0.10 0.01 83 1008.1
20200701232122 70 247 0.0 3.0 0.00 0.10 0.01 82 1008.1
20200701231622 70 65 1.0 4.0 0.00 0.10 0.01 81 1008.1
20200701230623 70 113 0.0 3.0 0.00 0.10 0.01 81 1008.1
20200701230122 70 209 0.0 5.0 0.00 0.10 0.01 80 1008.1
20200701225122 71 140 1.0 4.0 0.00 0.10 0.01 79 1008.1
20200701224622 71 119 2.0 6.0 0.00 0.10 0.01 79 1008.1
20200701224122 71 95 1.0 6.0 0.00 0.10 0.01 78 1008.1
20200701223622 71 199 1.0 2.0 0.00 0.10 0.01 78 1008.1
20200701223122 72 179 2.0 6.0 0.00 0.11 0.01 77 1008.1
20200701222622 72 158 2.0 6.0 0.00 0.11 0.01 76 1008.1
20200701222122 73 216 3.0 6.0 0.00 0.11 0.01 74 1008.1
20200701220122 74 246 2.0 4.0 0.00 0.11 0.01 72 1008.0
20200701215622 74 100 1.0 3.0 0.00 0.11 0.01 72 1007.8
20200701214622 74 215 2.0 4.0 0.00 0.11 0.01 71 1007.8
20200701213122 76 138 2.0 3.0 0.00 0.11 0.01 68 1007.8
20200701212622 76 44 1.0 3.0 0.00 0.11 0.01 69 1008.1
20200701211622 76 230 2.0 5.0 0.00 0.11 0.01 72 1008.1
20200701211122 76 148 2.0 5.0 0.00 0.11 0.01 70 1008.1
20200701210622 75 130 1.0 5.0 0.00 0.11 0.01 71 1008.1
20200701204622 74 209 2.0 6.0 0.00 0.14 0.01 74 1008.1
20200701203622 74 224 5.0 6.0 0.00 0.14 0.01 74 1008.0
20200701203122 74 210 3.0 5.0 0.00 0.16 0.01 75 1008.0
20200701202622 74 216 1.0 5.0 0.00 0.16 0.01 73 1007.9
20200701201622 74 95 3.0 6.0 0.00 0.18 0.01 73 1007.9
20200701201122 74 155 2.0 6.0 0.00 0.18 0.01 75 1008.1
20200701200124 75 75 1.0 6.0 0.00 0.19 0.01 72 1008.1
20200701195622 75 133 2.0 6.0 0.00 0.19 0.01 73 1008.1
20200701194623 74 117 2.0 7.0 0.00 0.20 0.01 73 1008.1
20200701191622 76 89 2.0 5.0 0.00 0.20 0.01 70 1008.1
20200701190623 76 217 3.0 4.0 0.00 0.20 0.01 68 1008.1
20200701190122 76 79 1.0 4.0 0.00 0.20 0.01 73 1008.1